Location: Cicognara
(44.9500°N, 10.4667°E)
Time: 15:00:25
(UTC+00:00)

OPS 8737 - Pass Details

Date: 20 June 2021
Orbit: 355 x 1710 km, 63.3° (Epoch: 17 July)

Event Time Altitude Azimuth Distance (km) Brightness Sun altitude
Rises 20:23:16 0° 215° (SW) 3,067 8.5 -10.7°
Reaches altitude 10° 20:25:56 10° 215° (SW) 1,947 7.5 -11.0°
Maximum altitude 20:30:09 86° 130° (SE) 488 4.5 -11.4°
Drops below altitude 10° 20:33:21 10° 39° (NE) 1,489 7.2 -11.8°
Sets 20:35:11 0° 39° (NE) 2,274 8.2 -12.0°
